STARLINK-2495, 48325

Orbit data source: Space-Track

STARLINK-2495, 48325 is a payload satellite owned by SpaceX/Seattle (US) in LEO that was launched on Thu, 29 Apr 2021 UTC via an FALCON 9 launch vehicle from the Air Force Eastern Test Range (AFETR). Payload-class satellites include a variety of spacecraft equipped with specific instruments for various scientific and technological missions. These include communications satellites like Starlink; space stations such as the ISS; scientific satellites like the Hubble; Earth observation satellites from companies like Planet Labs, Umbra, and HawkEye 360; GPS; miniature CubeSats for education and research; and military/defense satellites.

Loading next visibility...
Identifier
48325, 2021-036BB
Orbit
LEO
Country
Flag of USUS
Related business
Manufacturer
SpaceX/Seattle
Mission
Operational Commercial Communications
Bus & Motor
STARLINK, Unknown motor
Mass
260 kg wet, ~248 kg dry
Launch date (UTC)
2021-04-29 (4 years ago)
Launch vehicle
FALCON 9
Launch site
Air Force Eastern Test Range (AFETR)
Object type
Payload
Rocket body
Debris
Shape & HBR
Box + 1 Pan, 10.1 m
Radar Cross Section
13.562 m², Large (>1 m²)

Expand to show TLE details & history
Last TLE update: 6 hours ago

TLE from 6 hours ago
0 STARLINK-2495
1 48325U 21036BB  25296.56082985  .00011670  00000-0  80058-3 0  9990
2 48325  53.0550 357.2133 0001761  88.1433 271.9758 15.06422435247361
Epoch: 2025-10-23T13:27Z
TLE epoch observation values (Epoch: 2025-10-23T13:27:35.699Z)
Latitude
0.00003°
Longitude
123.09625°
Altitude
547.98 km
Speed
7.589 km/s
True Right ascension
23h 48m 51s
True Declination
0° 00' 00"
Sunlit
Object was in full shadow at epoch
Visualization orbit readout
Latitude
Unknown
Longitude
Unknown
Altitude
Unknown
Speed
Unknown
Apparent Right ascension
Unknown
Apparent Declination
Unknown
Sunlit
N/A
Visualization observer readout
Local Sidereal Time
15:02:50
Azimuth
Unknown
Elevation
Unknown
Doppler factor
Unknown
Orbital elements
Apogee altitude
548.633 km
Perigee altitude
546.194 km
Semi-major axis
6,925.55 km
Eccentricity
0.00018
Inclination
53.055°
RAAN
357.2133°
Arg. of periapsis
88.1433°
True anomaly
271.95563°
Mean anomaly
271.9758°
Eccentric anomaly
271.96572°
Mean motion
3.76584 °/min
Orbital period
95.6 mins
BSTAR
0.00080058
Loading maneuver chart data...
Computing Atmospheric mass density...
Loading historical data...
Loading historical data...
Loading historical data...
Loading historical data...
Loading historical data...
Loading historical data...
Loading historical data...

Documentation

Showing up to 5 results
|